| time (UTC) | temp C | wind direction | speed KPH | gust KPH | rain 1hr cm | rain 24hr cm | rain mn cm | humidity % | barometer mb |
| 20260504202522 | 17 | 0 | 0.0 | 0.0 | 0.00 | 0.15 | 0.15 | 62 | 1010.7 |
| 20260504201622 | 17 | 0 | 1.6 | 0.0 | 0.00 | 0.15 | 0.15 | 62 | 1010.7 |
| 20260504200722 | 17 | 1 | 3.2 | 6.4 | 0.00 | 0.15 | 0.15 | 62 | 1010.6 |
| 20260504195822 | 17 | 1 | 1.6 | 6.4 | 0.00 | 0.15 | 0.15 | 63 | 1010.6 |
| 20260504194922 | 17 | 1 | 1.6 | 4.8 | 0.00 | 0.15 | 0.15 | 62 | 1010.5 |
| 20260504194022 | 17 | 1 | 3.2 | 8.0 | 0.00 | 0.15 | 0.15 | 63 | 1010.4 |
| 20260504193122 | 17 | 1 | 4.8 | 8.0 | 0.00 | 0.15 | 0.15 | 63 | 1010.1 |
| 20260504192222 | 17 | 1 | 6.4 | 9.7 | 0.00 | 0.15 | 0.15 | 63 | 1009.9 |
| 20260504190422 | 17 | 1 | 4.8 | 9.7 | 0.00 | 0.15 | 0.15 | 63 | 1009.5 |
| 20260504185522 | 17 | 1 | 4.8 | 9.7 | 0.00 | 0.15 | 0.15 | 63 | 1009.4 |
| 20260504182822 | 17 | 1 | 6.4 | 12.9 | 0.00 | 0.15 | 0.15 | 61 | 1009.2 |
| 20260504181022 | 17 | 1 | 8.0 | 17.7 | 0.00 | 0.15 | 0.15 | 61 | 1009.3 |
| 20260504175222 | 17 | 1 | 6.4 | 14.5 | 0.00 | 0.15 | 0.15 | 60 | 1009.3 |
| 20260504173422 | 18 | 1 | 4.8 | 11.3 | 0.03 | 0.15 | 0.15 | 61 | 1009.3 |
| 20260504172522 | 18 | 1 | 6.4 | 14.5 | 0.03 | 0.15 | 0.15 | 61 | 1009.4 |
| 20260504171622 | 18 | 1 | 6.4 | 12.9 | 0.05 | 0.15 | 0.15 | 61 | 1009.4 |
| 20260504170722 | 17 | 1 | 6.4 | 14.5 | 0.13 | 0.15 | 0.15 | 61 | 1009.5 |
| 20260504151022 | 19 | 1 | 14.5 | 32.2 | 0.00 | 0.00 | 0.00 | 74 | 1009.8 |
| 20260504140721 | 21 | 1 | 14.5 | 25.7 | 0.00 | 0.00 | 0.00 | 70 | 1009.6 |
| 20260504120121 | 20 | 1 | 11.3 | 19.3 | 0.00 | 0.00 | 0.00 | 75 | 1010.9 |
| 20260504110721 | 20 | 1 | 9.7 | 24.1 | 0.00 | 0.00 | 0.00 | 72 | 1011.2 |
| 20260504100421 | 21 | 1 | 9.7 | 22.5 | 0.00 | 0.00 | 0.00 | 70 | 1011.2 |
| 20260504090121 | 21 | 1 | 4.8 | 9.7 | 0.00 | 0.00 | 0.00 | 64 | 1010.8 |
| 20260504081620 | 20 | 1 | 11.3 | 20.9 | 0.00 | 0.00 | 0.00 | 70 | 1010.9 |
| 20260504080720 | 20 | 1 | 12.9 | 19.3 | 0.00 | 0.00 | 0.00 | 71 | 1011.0 |
| 20260504050720 | 14 | 1 | 6.4 | 11.3 | 0.00 | 0.00 | 0.00 | 70 | 1011.5 |
| 20260504045820 | 14 | 1 | 6.4 | 9.7 | 0.00 | 0.00 | 0.00 | 71 | 1011.6 |
| 20260504044920 | 15 | 1 | 4.8 | 12.9 | 0.00 | 0.00 | 0.00 | 70 | 1011.6 |
| 20260504044020 | 15 | 1 | 4.8 | 12.9 | 0.00 | 0.00 | 0.00 | 69 | 1011.6 |
| 20260504043120 | 15 | 1 | 4.8 | 9.7 | 0.00 | 0.00 | 0.00 | 69 | 1011.6 |
| 20260504042220 | 15 | 1 | 6.4 | 9.7 | 0.00 | 0.00 | 0.00 | 70 | 1011.7 |
| 20260504041320 | 15 | 1 | 6.4 | 12.9 | 0.00 | 0.00 | 0.00 | 70 | 1011.8 |
| 20260504040420 | 15 | 1 | 6.4 | 11.3 | 0.00 | 0.00 | 0.00 | 70 | 1011.9 |
| 20260504035520 | 15 | 1 | 4.8 | 8.0 | 0.00 | 0.00 | 0.00 | 70 | 1011.9 |
| 20260504033720 | 15 | 1 | 4.8 | 8.0 | 0.00 | 0.00 | 0.00 | 71 | 1012.1 |
| 20260504032820 | 15 | 1 | 3.2 | 6.4 | 0.00 | 0.00 | 0.00 | 71 | 1012.1 |
| 20260504031920 | 15 | 1 | 3.2 | 6.4 | 0.00 | 0.00 | 0.00 | 72 | 1012.3 |
| 20260504031020 | 15 | 1 | 3.2 | 6.4 | 0.00 | 0.00 | 0.00 | 72 | 1012.4 |
| 20260504030120 | 15 | 1 | 3.2 | 4.8 | 0.00 | 0.00 | 0.00 | 72 | 1012.3 |
| 20260504025220 | 15 | 1 | 1.6 | 6.4 | 0.00 | 0.00 | 0.00 | 72 | 1012.3 |
| 20260504024320 | 15 | 1 | 3.2 | 6.4 | 0.00 | 0.00 | 0.00 | 72 | 1012.4 |
| 20260504023419 | 15 | 1 | 1.6 | 8.0 | 0.00 | 0.00 | 0.00 | 73 | 1012.4 |
| 20260504022519 | 15 | 1 | 3.2 | 6.4 | 0.00 | 0.00 | 0.00 | 73 | 1012.5 |
| 20260504021619 | 15 | 1 | 3.2 | 6.4 | 0.00 | 0.00 | 0.00 | 74 | 1012.4 |
| 20260504020719 | 15 | 1 | 3.2 | 8.0 | 0.00 | 0.00 | 0.00 | 74 | 1012.5 |
| 20260504015819 | 15 | 1 | 3.2 | 8.0 | 0.00 | 0.00 | 0.00 | 74 | 1012.7 |
| 20260504014019 | 15 | 1 | 3.2 | 4.8 | 0.00 | 0.00 | 0.00 | 75 | 1012.7 |
| 20260504012219 | 15 | 1 | 3.2 | 4.8 | 0.00 | 0.00 | 0.00 | 75 | 1012.7 |
| 20260504011319 | 15 | 1 | 4.8 | 9.7 | 0.00 | 0.00 | 0.00 | 75 | 1012.8 |
| 20260504010419 | 15 | 1 | 4.8 | 6.4 | 0.00 | 0.00 | 0.00 | 74 | 1012.9 |
| 20260504004619 | 15 | 1 | 6.4 | 11.3 | 0.00 | 0.00 | 0.00 | 75 | 1013.0 |
| 20260504003719 | 15 | 1 | 4.8 | 9.7 | 0.00 | 0.00 | 0.00 | 75 | 1013.0 |
| 20260504001919 | 15 | 1 | 4.8 | 9.7 | 0.00 | 0.00 | 0.00 | 74 | 1013.1 |
| 20260504001019 | 15 | 1 | 4.8 | 9.7 | 0.00 | 0.00 | 0.00 | 74 | 1013.2 |
| 20260504000119 | 16 | 1 | 4.8 | 9.7 | 0.00 | 0.00 | 0.00 | 74 | 1013.2 |
| 20260503235219 | 16 | 1 | 6.4 | 9.7 | 0.00 | 0.00 | 0.00 | 75 | 1013.3 |
| 20260503234319 | 16 | 1 | 6.4 | 11.3 | 0.00 | 0.00 | 0.00 | 75 | 1013.4 |
| 20260503233419 | 16 | 1 | 6.4 | 9.7 | 0.00 | 0.00 | 0.00 | 75 | 1013.4 |
| 20260503232519 | 16 | 1 | 6.4 | 9.7 | 0.00 | 0.00 | 0.00 | 75 | 1013.5 |
| 20260503231619 | 16 | 1 | 6.4 | 9.7 | 0.00 | 0.00 | 0.00 | 76 | 1013.5 |
| 20260503230719 | 16 | 1 | 4.8 | 9.7 | 0.00 | 0.00 | 0.00 | 76 | 1013.6 |
| 20260503225819 | 16 | 1 | 4.8 | 9.7 | 0.00 | 0.00 | 0.00 | 76 | 1013.8 |
| 20260503224919 | 16 | 1 | 4.8 | 9.7 | 0.00 | 0.00 | 0.00 | 76 | 1014.0 |
| 20260503224019 | 16 | 1 | 4.8 | 8.0 | 0.00 | 0.00 | 0.00 | 76 | 1014.0 |
| 20260503223119 | 16 | 1 | 4.8 | 8.0 | 0.00 | 0.00 | 0.00 | 76 | 1014.2 |
| 20260503221319 | 16 | 1 | 4.8 | 9.7 | 0.00 | 0.00 | 0.00 | 77 | 1014.3 |
| 20260503214619 | 16 | 1 | 4.8 | 9.7 | 0.00 | 0.00 | 0.00 | 77 | 1014.4 |
| 20260503213719 | 16 | 1 | 8.0 | 12.9 | 0.00 | 0.00 | 0.00 | 77 | 1014.4 |
| 20260503210119 | 16 | 1 | 8.0 | 16.1 | 0.00 | 0.00 | 0.00 | 76 | 1014.7 |
| 20260503205219 | 16 | 1 | 8.0 | 17.7 | 0.00 | 0.00 | 0.00 | 76 | 1014.7 |
| 20260503204319 | 16 | 1 | 8.0 | 14.5 | 0.00 | 0.00 | 0.00 | 76 | 1014.8 |
| 20260503203419 | 16 | 1 | 6.4 | 14.5 | 0.00 | 0.00 | 0.00 | 76 | 1014.9 |